Roanoke, VA

8:34 AM EST on November 12, 2019 (GMT -0500)
Roanoke Regional-Woodrum

Weather History for KROA - September, 2019

Change the Weather History Date:

Thursday, September 12, 2019

  Actual Average Record
Temperature  
Mean Temperature 83 °F 70 °F  
Max Temperature 97 °F 80 °F 97 °F (2019)
Min Temperature 69 °F 59 °F 38 °F (1917)
Degree Days  
Heating Degree Days 0 1  
Month to date heating degree days 0 4  
Since 1 July heating degree days 0 5  
Cooling Degree Days 18 5  
Month to date cooling degree days 155 81  
Year to date cooling degree days 1518 1128  
Growing Degree Days 33 (Base 50)    
Moisture  
Dew Point 68 °F    
Average Humidity 65    
Maximum Humidity 100    
Minimum Humidity 30    
Precipitation  
Precipitation 0.02 in 0.13 in 1.68 in (1989)
Month to date precipitation 0.65 1.61  
Year to date precipitation 31.35 29.74  
Snow  
Snow 0.00 in - - ()
Month to date snowfall 0.0  
Since 1 July snowfall T  
Since 1 September snowfall 0.0  
Snow Depth 0.00 in    
Sea Level Pressure  
Sea Level Pressure 30.13 in    
Wind  
Wind Speed 3 mph (ENE)    
Max Wind Speed 18 mph    
Max Gust Speed 22 mph    
Visibility 10 miles    
Events Rain , Thunderstorm    
T = Trace of Precipitation, MM = Missing Value Source: NWS Daily Summary

Daily Weather History Graph

Daily Weather History Graph

Search for Another Location

Airport or City:

Astronomy

Sep. 12, 2019 Rise Set
Actual Time 6:59 AM EDT 7:32 PM EDT
Civil Twilight 6:33 AM EDT 7:58 PM EDT
Nautical Twilight 6:02 AM EDT 8:29 PM EDT
Astronomical Twilight 5:30 AM EDT 9:01 PM EDT
Moon 7:13 PM EDT 5:21 AM EDT
Length of Visible Light 13h 25m
Length of Day
12h 33m
Waxing Gibbous, 98% of the Moon is Illuminated
Sep 12
Waxing Gibbous
Sep 14
Full
Sep 21
Last Quarter
Sep 28
New
Oct 5
First Quarter

Hourly Weather History & Observations

Time (EDT) Temp. Heat Index Dew Point Humidity Pressure Visibility Wind Dir Wind Speed Gust Speed Precip Events Conditions
12:54 AM 72.0 °F - 71.1 °F 97% 30.16 in 8.0 mi Calm Calm - N/A   Clear
1:54 AM 72.0 °F - 69.1 °F 91% 30.14 in 10.0 mi Calm Calm - N/A   Clear
2:54 AM 72.0 °F - 69.1 °F 91% 30.12 in 10.0 mi North 3.5 mph - N/A   Clear
3:54 AM 73.0 °F - 69.1 °F 87% 30.12 in 10.0 mi North 3.5 mph - N/A   Clear
4:54 AM 71.1 °F - 68.0 °F 90% 30.13 in 10.0 mi Calm Calm - N/A   Clear
5:54 AM 71.1 °F - 68.0 °F 90% 30.15 in 10.0 mi Calm Calm - N/A   Clear
6:54 AM 69.1 °F - 66.9 °F 93% 30.16 in 10.0 mi North 3.5 mph - N/A   Clear
7:54 AM 71.1 °F - 68.0 °F 90% 30.18 in 10.0 mi North 3.5 mph - N/A   Clear
8:54 AM 77.0 °F - 68.0 °F 74% 30.18 in 10.0 mi Calm Calm - N/A   Clear
9:54 AM 81.0 °F 84.1 °F 69.1 °F 67% 30.18 in 10.0 mi Calm Calm - N/A   Clear
10:54 AM 84.9 °F 88.8 °F 69.1 °F 59% 30.17 in 10.0 mi Calm Calm - N/A   Clear
11:54 AM 88.0 °F 92.1 °F 69.1 °F 53% 30.15 in 10.0 mi SE 4.6 mph - N/A   Scattered Clouds
12:54 PM 88.0 °F 92.1 °F 69.1 °F 53% 30.13 in 10.0 mi ESE 4.6 mph - N/A   Mostly Cloudy
1:54 PM 91.9 °F 95.4 °F 66.9 °F 44% 30.12 in 10.0 mi East 4.6 mph - N/A   Scattered Clouds
2:54 PM 93.9 °F 96.1 °F 64.9 °F 38% 30.09 in 10.0 mi Calm Calm - N/A   Scattered Clouds
3:54 PM 96.1 °F 96.0 °F 60.1 °F 30% 30.08 in 10.0 mi North 12.7 mph - N/A   Mostly Cloudy
4:29 PM 89.1 °F 91.0 °F 64.9 °F 45% 30.12 in 10.0 mi ENE 9.2 mph - N/A Thunderstorm Mostly Cloudy
4:54 PM 87.1 °F 90.6 °F 68.0 °F 53% 30.08 in 10.0 mi SE 12.7 mph - N/A Thunderstorm Mostly Cloudy
5:20 PM 82.0 °F 85.9 °F 70.0 °F 67% 30.13 in 7.0 mi South 9.2 mph - 0.01 in Rain Light Rain
5:54 PM 82.0 °F 86.3 °F 71.1 °F 69% 30.10 in 10.0 mi Calm Calm - 0.02 in   Mostly Cloudy
6:54 PM 82.0 °F 85.5 °F 69.1 °F 65% 30.10 in 10.0 mi SE 4.6 mph - N/A   Scattered Clouds
7:54 PM 82.0 °F 84.9 °F 68.0 °F 62% 30.11 in 10.0 mi Calm Calm - N/A   Partly Cloudy
8:54 PM 80.1 °F 82.9 °F 69.1 °F 69% 30.13 in 10.0 mi Calm Calm - N/A   Clear
9:54 PM 75.9 °F - 72.0 °F 87% 30.15 in 10.0 mi Calm Calm - N/A   Partly Cloudy
10:54 PM 75.9 °F - 69.1 °F 79% 30.14 in 10.0 mi North 3.5 mph - N/A   Clear
11:54 PM 73.0 °F - 69.1 °F 87% 30.14 in 10.0 mi Calm Calm - N/A   Partly Cloudy